Regional Weather Roundup
Issued by NWS

Home | Current Version | Previous Version | Graphics & Text | Print | Product List | Glossary On
Versions: 1 2 3 4 5 6 7 8 9 10 11 12 13 14 15 16 17 18 19 20 21 22 23 24 25 26 27 28 29 30 31 32 33 34 35 36 37 38 39 40 41 42 43 44 45 46 47 48 49 50
000
ASUS43 KMPX 261201
RWRMN
WEATHER ROUNDUP FOR MINNESOTA
NATIONAL WEATHER SERVICE TWIN CITIES/CHANHASSEN MN
700 AM CDT MON JUN 26 2017


NOTE: "FAIR" INDICATES FEW OR NO CLOUDS BELOW 12,000 FEET WITH NO
SIGNIFICANT WEATHER AND/OR OBSTRUCTIONS TO VISIBILITY. N/A MEANS
CURRENT SKY AND/OR WEATHER CONDITIONS ARE NOT AVAILABLE.

MNZ060>063-068>070-261300-
   Twin Cities Metro

CITY           SKY/WX    TMP DP  RH WIND       PRES   REMARKS
TWIN CITIES    SUNNY     54  45  71 N5        30.17R
6HR MIN TEMP:  50; 6HR MAX TEMP:  57;

ST PAUL        SUNNY     52  46  80 NW7       30.18R
CRYSTAL        SUNNY     52  42  69 NW6       30.16
BLAINE         SUNNY     52  46  82 NW5       30.16S
LAKEVILLE      SUNNY     52  46  82 NW7       30.17R
EDEN PRAIRIE   SUNNY     55  45  68 NW8       30.16S
6HR MIN TEMP:  52; 6HR MAX TEMP:  57;

SOUTH ST PAUL  SUNNY     53  46  76 NW6       30.17S
LAKE ELMO      FAIR      50  46  87 CALM      30.17S
$$
MNZ001>005-007-008-013>017-022>024-027-028-261300-
   Northwest Minnesota

CITY           SKY/WX    TMP DP  RH WIND       PRES   REMARKS
BEMIDJI        SUNNY     46  43  90 NW7       30.19R
HALLOCK        SUNNY     46  43  87 CALM      30.20S
ROSEAU         SUNNY     48  45  87 W7        30.18S
WARROAD        SUNNY     46  43  87 W6        30.17S
CROOKSTON      SUNNY     46  43  87 CALM      30.22S
FOSSTON        SUNNY     43  43 100 CALM      30.21S
DETROIT LAKES  SUNNY     48  45  87 NW5       30.23R
MOORHEAD       SUNNY     46  43  87 CALM      30.23S
PARK RAPIDS    SUNNY     46  42  86 CALM      30.20R
MAHNOMEN       FAIR      45  43  93 CALM      30.22R
$$
MNZ006-009>011-018-025>026-261300-
   North Central Minnesota

CITY           SKY/WX    TMP DP  RH WIND       PRES   REMARKS
BAUDETTE       MOSUNNY   48  46  93 W8        30.15S
FLAG ISLAND    PTSUNNY   52  45  76 NW12G17   30.13S
INTL FALLS     PTSUNNY   48  45  89 W5        30.13R
6HR MIN TEMP:  41; 6HR MAX TEMP:  48;

WASKISH        PTSUNNY   52  46  82 NW7       30.16S
BIG FORK       SUNNY     45  45 100 CALM      30.16R
LONGVILLE      SUNNY     48  48 100 W3        30.17S
GRAND RAPIDS   SUNNY     48  45  89 NW6       30.18R
CRANE LAKE     SUNNY     37  37 100 CALM      30.14R
ORR            SUNNY     46  45  93 NW6       30.11R
COOK           SUNNY     43  43 100 W3        30.13S
WALKER         FAIR      45  42  90 NW6       30.18S
$$
MNZ012-019>021-037-261300-
   Northeast Minnesota

CITY           SKY/WX    TMP DP  RH WIND       PRES   REMARKS
DULUTH         MOSUNNY   45  43  93 NW7       30.11S
6HR MIN TEMP:  42; 6HR MAX TEMP:  45;

ELY            SUNNY     46  46 100 CALM      30.11R
HIBBING        SUNNY     45  44  97 NW8       30.13R
EVELETH        SUNNY     48  41  77 NW9       30.13R
DULUTH HARBOR  MOSUNNY   52  46  82 SW3       30.13R
TWO HARBORS    CLOUDY    52  46  82 CALM      30.09R
SILVER BAY     CLOUDY    48  48 100 CALM      30.08F
GRAND MARAIS     N/A     52  49  89 NW12G22   30.05R
G MARAIS ARPRT PTSUNNY   46  43  87 NW5       30.07R
$$
MNZ029>031-032-039>041-046>048-054>057-064-261300-
   West Central Minnesota

CITY           SKY/WX    TMP DP  RH WIND       PRES   REMARKS
FERGUS FALLS   SUNNY     46  45  93 CALM      30.22R
WHEATON        SUNNY     50  45  81 CALM      30.25S
MORRIS         SUNNY     48  46  93 NW3       30.22R
ALEXANDRIA     SUNNY     51  48  89 N5        30.23R
ELBOW LAKE     FAIR      48  46  93 CALM      30.23R
WADENA         SUNNY     45  45 100 W3        30.20S
GLENWOOD       SUNNY     50  46  87 NW3       30.22R
APPLETON       SUNNY     52  45  76 N5        30.22R
BENSON         SUNNY     48  46  93 CALM      30.23R
ORTONVILLE     SUNNY     52  43  71 N7        30.23R
MADISON        SUNNY     52  52 100 NW3       30.22R
WILLMAR        FAIR      52  46  82 N6        30.22R
$$
MNZ033>034-036-042>043-049>051-058-059-261300-
   Central Minnesota

CITY           SKY/WX    TMP DP  RH WIND       PRES   REMARKS
ST CLOUD       SUNNY     48  46  93 NW5       30.19R
6HR MIN TEMP:  42; 6HR MAX TEMP:  49;

SAUK CENTRE    FAIR      47  44  88 CALM      30.21S
PAYNESVILLE    SUNNY     50  49  96 NW5       30.21S
AITKIN         SUNNY     46  45  93 CALM      30.16R
PINE RIVER     SUNNY     46  43  87 CALM      30.21S
BRAINERD       SUNNY     50  44  80 NW7       30.19R
STAPLES        SUNNY     45  43  93 NW5       30.20S
LONG PRAIRIE   FAIR      46  43  87 W6        30.21S
LITTLE FALLS   SUNNY     43  41  93 CALM      30.20R
LITCHFIELD     SUNNY     52  46  82 NW7       30.20R
BUFFALO        SUNNY     51  44  76 NW7       30.19S
MAPLE LAKE     SUNNY     51  47  84 NW7       30.20R
HUTCHINSON     SUNNY     52  48  87 NW5       30.20R
$$
MNZ037-044-045-052-053-261300-
   East Central Minnesota

CITY           SKY/WX    TMP DP  RH WIND       PRES   REMARKS
PRINCETON      SUNNY     48  46  93 CALM      30.18S
MORA           SUNNY     45  45 100 NW3       30.18S
CAMBRIDGE      SUNNY     48  43  81 CALM      30.15S
RUSH CITY      FLURRIES  46  45  93 CALM      30.17S
MOOSE LAKE     SUNNY     46  43  87 CALM      30.13S
HINCKLEY       FAIR      48  45  87 NW8       30.15S
CLOQUET        SUNNY     46  43  87 W8        30.13S
MCGREGOR       SUNNY     48  45  87 NW6       30.16S
$$
MNZ071>073-080-081-089-090-097-098-261300-
   Southwest Minnesota

CITY           SKY/WX    TMP DP  RH WIND       PRES   REMARKS
MONTEVIDEO     SUNNY     52  46  82 N5        30.22R
GRANITE FALLS  SUNNY     51  48  91 CALM      30.23R
CANBY          SUNNY     50  46  87 CALM      30.24R
MARSHALL       SUNNY     49  46  90 NW6       30.23R
REDWOOD FALLS  SUNNY     51  46  83 NW6       30.20R
OLIVIA         SUNNY     50  46  87 CALM      30.20R
PIPESTONE      SUNNY     52  46  82 N6        30.22R
WINDOM         SUNNY     52  46  82 NW8       30.21R
WORTHINGTON    SUNNY     52  49  89 N8        30.21S
JACKSON        SUNNY     52  46  82 CALM      30.20S
TRACY          SUNNY     51  48  87 NW6       30.22S
SLAYTON        SUNNY     47  46  93 NW3       30.23R
$$
MNZ065>067-074>077-082>085-091>093-261300-
   South Central Minnesota

CITY           SKY/WX    TMP DP  RH WIND       PRES   REMARKS
MANKATO        SUNNY     51  48  89 NW5       30.19R
NEW ULM        SUNNY     52  46  82 NW5       30.20R
ST JAMES       SUNNY     52  46  82 NW5       30.21R
GLENCOE        SUNNY     52  49  89 NW3       30.19R
FARIBAULT      SUNNY     54  46  76 NW5       30.18R
OWATONNA       SUNNY     52  48  87 CALM      30.18R
WASECA         SUNNY     50  48  93 CALM      30.20R
ALBERT LEA     SUNNY     54  46  76 CALM      30.18S
$$
MNZ078>079-086>088-094>096-261300-
   Southeast Minnesota

CITY           SKY/WX    TMP DP  RH WIND       PRES   REMARKS
ROCHESTER      SUNNY     51  48  89 W6        30.17R
6HR MIN TEMP:  47; 6HR MAX TEMP:  51;

RED WING       SUNNY     52  46  82 CALM      30.15S
STANTON        SUNNY     51  47  87 CALM      30.16R
DODGE CENTER   SUNNY     52  45  76 NW7       30.17S
WINONA         SUNNY     52  46  82 NW5       30.16R
AUSTIN         SUNNY     54  46  76 NW5       30.17S
PRESTON        SUNNY     51  45  79 NW7       30.17R
$$
ABBREVIATIONS USED IN REMARKS
   TC - TEMPERATURES IN CELSIUS
  WCI - WIND CHILL INDEX
   HX - HEAT INDEX
  VSB - VISIBILITY
$$




USA.gov is the U.S. government's official web portal to all federal, state and local government web resources and services.